Terminal Aerodrome Forecast
Issued by NWS Albany, NY

Home | Current Version | Previous Version | Text Only | Print | Product List | Glossary On
Versions: 1 2 3 4 5 6 7 8 9 10 11 12 13 14 15 16 17 18 19 20 21 22 23 24 25 26 27 28 29 30 31 32 33 34
399
FTUS41 KALY 281735
TAFPOU
TAF
KPOU 281735Z 2818/2918 24006KT P6SM BKN040
     FM281900 23007KT P6SM SCT040 SCT100
     FM290600 21004KT P6SM BKN120 PROB30 2909/2910 4SM -SHRA OVC035
     FM291000 21003KT 5SM BR BKN035
     FM291500 25006KT P6SM BKN035=

USA.gov is the U.S. government's official web portal to all federal, state and local government web resources and services.